Jefferson, NC

4:23 PM EDT on May 23, 2017 (GMT -0400)
Ashe County

Weather History for KGEV - January, 2000

Change the Weather History Date:

Tuesday, January 25, 2000

  Actual Average Record
Temperature  
Mean Temperature 20 °F -  
Max Temperature 26 °F 45 °F 66 °F (1967)
Min Temperature 14 °F 26 °F 9 °F (2014)
Degree Days  
Heating Degree Days 45    
Moisture  
Dew Point 5 °F    
Average Humidity 54    
Maximum Humidity 80    
Minimum Humidity 39    
Precipitation  
Precipitation 0.00 in - - ()
Sea Level Pressure  
Sea Level Pressure 29.53 in    
Wind  
Wind Speed 19 mph (WNW)    
Max Wind Speed 33 mph    
Max Gust Speed 44 mph    
Visibility 9 miles    
Events Snow    
Averages and records for this station are not official NWS values.
T = Trace of Precipitation, MM = Missing Value Source: NWS Daily Summary

Daily Weather History Graph

Daily Weather History Graph

Search for Another Location

Airport or City:

Trip Planner

Search our weather history database for the weather conditions in past years. The results will help you decide how hot, cold, wet, or windy it might be!

Date:

Astronomy

Jan. 25, 2000 Rise Set
Actual Time 7:32 AM EST 5:43 PM EST
Civil Twilight 7:04 AM EST 6:11 PM EST
Nautical Twilight 6:33 AM EST 6:42 PM EST
Astronomical Twilight 6:03 AM EST 7:13 PM EST
Moon 10:51 PM EST (1/25) 10:36 AM EST (1/25)
Length of Visible Light 11h 06m
Length of Day
10h 11m
Waning Gibbous, 76% of the Moon is Illuminated
Jan 25
Waning Gibbous
Jan 28
Last Quarter
Feb 5
New
Feb 12
First Quarter
Feb 19
Full

Hourly Weather History & Observations

Time (EST) Temp. Windchill Dew Point Humidity Pressure Visibility Wind Dir Wind Speed Gust Speed Precip Events Conditions
12:16 AM 26.6 °F 15.7 °F 19.4 °F 74% 29.63 in 10.0 mi WNW 12.7 mph 18.4 mph N/A   Clear
12:36 AM 26.6 °F 17.5 °F 19.4 °F 74% 29.62 in 10.0 mi West 9.2 mph 25.3 mph N/A   Clear
12:56 AM 26.6 °F 15.2 °F 19.4 °F 74% 29.59 in 10.0 mi WNW 13.8 mph 23.0 mph N/A   Clear
1:16 AM 23.0 °F 11.7 °F 17.6 °F 80% 29.58 in 10.0 mi West 11.5 mph 25.3 mph N/A   Clear
1:36 AM 23.0 °F 11.1 °F 17.6 °F 80% 29.57 in 10.0 mi West 12.7 mph 26.5 mph N/A   Clear
1:56 AM 23.0 °F 8.3 °F 14.0 °F 68% 29.56 in 10.0 mi West 19.6 mph 28.8 mph N/A   Clear
2:16 AM 23.0 °F 8.3 °F 12.2 °F 63% 29.56 in 10.0 mi WNW 19.6 mph 26.5 mph N/A   Clear
2:36 AM 23.0 °F 9.2 °F 8.6 °F 54% 29.56 in 10.0 mi West 17.3 mph 28.8 mph N/A   Clear
2:56 AM 21.2 °F 4.9 °F 8.6 °F 58% 29.55 in 10.0 mi WNW 23.0 mph 34.5 mph N/A   Clear
3:16 AM 21.2 °F 6.4 °F 8.6 °F 58% 29.55 in 10.0 mi WNW 18.4 mph 33.4 mph N/A   Clear
3:36 AM 19.4 °F 1.4 °F 10.4 °F 68% 29.54 in 7.0 mi WNW 26.5 mph 36.8 mph N/A   Clear
3:56 AM 19.4 °F 3.2 °F 10.4 °F 68% 29.54 in 4.0 mi WNW 20.7 mph 36.8 mph N/A   Haze
4:16 AM 19.4 °F 2.1 °F 8.6 °F 63% 29.53 in 5.0 mi WNW 24.2 mph 36.8 mph N/A   Haze
4:36 AM 19.4 °F 1.4 °F 8.6 °F 63% 29.51 in 3.0 mi WNW 26.5 mph 39.1 mph N/A   Haze
4:56 AM 19.4 °F 1.4 °F 8.6 °F 63% 29.51 in 3.0 mi WNW 26.5 mph 38.0 mph 0.00 in Snow Light Snow
5:16 AM 19.4 °F -0.3 °F 8.6 °F 63% 29.50 in 2.5 mi WNW 33.4 mph 42.6 mph 0.00 in Snow Light Snow
5:36 AM 19.4 °F 1.4 °F 8.6 °F 63% 29.52 in 5.0 mi West 26.5 mph 42.6 mph N/A   Haze
5:56 AM 17.6 °F 0.1 °F 5.0 °F 58% 29.54 in 7.0 mi WNW 23.0 mph 38.0 mph N/A   Clear
6:16 AM 15.8 °F -1.5 °F 5.0 °F 62% 29.56 in 10.0 mi West 20.7 mph 33.4 mph N/A   Clear
6:36 AM 15.8 °F -4.1 °F 5.0 °F 62% 29.55 in 7.0 mi WNW 28.8 mph 40.3 mph N/A   Clear
6:56 AM 14.0 °F -4.7 °F 3.2 °F 62% 29.54 in 10.0 mi WNW 23.0 mph 40.3 mph N/A   Clear
7:16 AM 14.0 °F -4.3 °F 3.2 °F 62% 29.54 in 10.0 mi WNW 21.9 mph 36.8 mph N/A   Clear
7:36 AM 14.0 °F -4.7 °F 3.2 °F 62% 29.55 in 10.0 mi WNW 23.0 mph 36.8 mph N/A   Clear
7:56 AM 14.0 °F -4.3 °F 3.2 °F 62% 29.55 in 10.0 mi WNW 21.9 mph 31.1 mph N/A   Clear
8:16 AM 14.0 °F -2.0 °F 3.2 °F 62% 29.56 in 10.0 mi WNW 16.1 mph 26.5 mph N/A   Clear
8:36 AM 14.0 °F -2.0 °F 1.4 °F 57% 29.55 in 10.0 mi WNW 16.1 mph 33.4 mph N/A   Clear
8:56 AM 14.0 °F -3.9 °F 1.4 °F 57% 29.54 in 10.0 mi WNW 20.7 mph 27.6 mph N/A   Clear
9:16 AM 15.8 °F -1.1 °F 1.4 °F 53% 29.53 in 10.0 mi WNW 19.6 mph 28.8 mph N/A   Clear
9:36 AM 17.6 °F 0.5 °F -0.4 °F 45% 29.51 in 10.0 mi NW 21.9 mph 33.4 mph N/A   Clear
9:56 AM 19.4 °F 2.5 °F -0.4 °F 42% 29.51 in 10.0 mi WNW 23.0 mph 33.4 mph N/A   Clear
10:16 AM 19.4 °F 1.4 °F -0.4 °F 42% 29.51 in 10.0 mi WNW 26.5 mph 35.7 mph N/A   Clear
10:36 AM 19.4 °F 1.8 °F -0.4 °F 42% 29.51 in 10.0 mi WNW 25.3 mph 39.1 mph N/A   Clear
10:56 AM 19.4 °F 2.1 °F -0.4 °F 42% 29.50 in 10.0 mi WNW 24.2 mph 43.7 mph N/A   Clear
11:16 AM 19.4 °F 2.1 °F -0.4 °F 42% 29.49 in 10.0 mi WNW 24.2 mph 38.0 mph N/A   Clear
11:36 AM 19.4 °F 2.8 °F -0.4 °F 42% 29.50 in 10.0 mi West 21.9 mph 34.5 mph N/A   Clear
11:56 AM 21.2 °F 5.2 °F -0.4 °F 39% 29.49 in 10.0 mi West 21.9 mph 32.2 mph N/A   Clear
12:16 PM 21.2 °F 6.4 °F -0.4 °F 39% 29.49 in 10.0 mi WNW 18.4 mph 33.4 mph N/A   Clear
12:36 PM 19.4 °F 4.5 °F -0.4 °F 42% 29.50 in 10.0 mi WNW 17.3 mph 29.9 mph N/A   Clear
12:56 PM 19.4 °F 6.0 °F 1.4 °F 46% 29.50 in 10.0 mi WNW 13.8 mph 31.1 mph N/A   Clear
1:16 PM 19.4 °F 3.2 °F 1.4 °F 46% 29.48 in 10.0 mi WNW 20.7 mph 32.2 mph N/A   Clear
1:36 PM 21.2 °F 6.8 °F 1.4 °F 42% 29.48 in 10.0 mi West 17.3 mph 33.4 mph N/A   Clear
1:56 PM 21.2 °F 5.2 °F -0.4 °F 39% 29.47 in 10.0 mi WNW 21.9 mph 36.8 mph N/A   Clear
2:16 PM 21.2 °F 8.3 °F -0.4 °F 39% 29.48 in 10.0 mi WNW 13.8 mph 24.2 mph N/A   Clear
2:36 PM 21.2 °F 8.3 °F -0.4 °F 39% 29.48 in 10.0 mi WNW 13.8 mph 32.2 mph N/A   Clear
2:56 PM 21.2 °F 6.0 °F -0.4 °F 39% 29.48 in 10.0 mi WNW 19.6 mph 33.4 mph N/A   Clear
3:16 PM 21.2 °F 5.2 °F -0.4 °F 39% 29.48 in 10.0 mi WNW 21.9 mph 32.2 mph N/A   Clear
3:36 PM 21.2 °F 7.3 °F -0.4 °F 39% 29.50 in 10.0 mi West 16.1 mph 38.0 mph N/A   Clear
3:56 PM 19.4 °F 7.2 °F -0.4 °F 42% 29.51 in 10.0 mi West 11.5 mph 31.1 mph N/A   Clear
4:16 PM 19.4 °F 4.1 °F 1.4 °F 46% 29.51 in 10.0 mi West 18.4 mph 36.8 mph N/A   Clear
4:36 PM 19.4 °F 2.1 °F 3.2 °F 49% 29.51 in 10.0 mi West 24.2 mph 31.1 mph N/A   Scattered Clouds
4:56 PM 19.4 °F 6.6 °F 5.0 °F 54% 29.53 in 10.0 mi West 12.7 mph 27.6 mph N/A   Scattered Clouds
5:16 PM 19.4 °F 1.4 °F 3.2 °F 49% 29.52 in 10.0 mi West 26.5 mph 35.7 mph N/A   Scattered Clouds
5:36 PM 19.4 °F 3.6 °F 5.0 °F 54% 29.53 in 10.0 mi West 19.6 mph 31.1 mph N/A   Clear
5:56 PM 19.4 °F 2.8 °F 5.0 °F 54% 29.54 in 10.0 mi West 21.9 mph 39.1 mph N/A   Clear
6:16 PM 17.6 °F 1.3 °F 5.0 °F 58% 29.56 in 10.0 mi WNW 19.6 mph 31.1 mph N/A   Clear
6:36 PM 17.6 °F 0.5 °F 5.0 °F 58% 29.54 in 10.0 mi WNW 21.9 mph 39.1 mph N/A   Scattered Clouds
6:56 PM 17.6 °F -0.3 °F 5.0 °F 58% 29.54 in 10.0 mi WNW 24.2 mph 31.1 mph N/A   Scattered Clouds
7:16 PM 17.6 °F 2.2 °F 5.0 °F 58% 29.56 in 10.0 mi WNW 17.3 mph 32.2 mph N/A   Scattered Clouds
7:36 PM 17.6 °F 2.2 °F 3.2 °F 53% 29.56 in 10.0 mi West 17.3 mph 33.4 mph N/A   Clear
7:56 PM 15.8 °F -1.1 °F 1.4 °F 53% 29.57 in 10.0 mi West 19.6 mph 29.9 mph N/A   Clear
8:16 PM 15.8 °F -0.6 °F 1.4 °F 53% 29.58 in 10.0 mi WNW 18.4 mph 24.2 mph N/A   Clear
8:36 PM 15.8 °F 0.9 °F 3.2 °F 58% 29.59 in 10.0 mi West 15.0 mph 28.8 mph N/A   Scattered Clouds
8:56 PM 14.0 °F -2.5 °F 3.2 °F 62% 29.59 in 10.0 mi West 17.3 mph 32.2 mph N/A   Scattered Clouds
9:16 PM 14.0 °F -3.0 °F 3.2 °F 62% 29.59 in 10.0 mi West 18.4 mph 27.6 mph N/A   Mostly Cloudy
9:36 PM 14.0 °F -2.0 °F 3.2 °F 62% 29.60 in 10.0 mi West 16.1 mph 32.2 mph N/A   Scattered Clouds
9:56 PM 14.0 °F -5.1 °F 5.0 °F 67% 29.59 in 10.0 mi WNW 24.2 mph 34.5 mph N/A   Mostly Cloudy
10:16 PM 14.0 °F -3.9 °F 5.0 °F 67% 29.60 in 10.0 mi West 20.7 mph 38.0 mph N/A   Mostly Cloudy
10:36 PM 14.0 °F -1.4 °F 6.8 °F 73% 29.62 in 5.0 mi West 15.0 mph 28.8 mph 0.00 in Snow Light Snow
10:56 PM 14.0 °F -0.2 °F 6.8 °F 73% 29.62 in 4.0 mi West 12.7 mph 33.4 mph 0.00 in Snow Light Snow
11:16 PM 14.0 °F -0.2 °F 6.8 °F 73% 29.62 in 5.0 mi West 12.7 mph 23.0 mph 0.00 in Snow Light Snow
11:36 PM 14.0 °F -0.2 °F 6.8 °F 73% 29.62 in 5.0 mi West 12.7 mph 24.2 mph 0.00 in Snow Light Snow
11:56 PM 14.0 °F -0.8 °F 6.8 °F 73% 29.63 in 3.0 mi WNW 13.8 mph 27.6 mph 0.00 in Snow Light Snow